M I D A S
Marine Information and Data Acquisition System
Tripno 1094 of the Zeeleeuw from 2006-01-27 05:03:36 to 2006-01-27 19:48:02
Back to CruiseResearch ActivitiesStationsMapUnderway DataData graphs

EquipmentUnitsComments
TimeDGPSUTC
LatitudeDGPSDM.mWGS84
LongitudeDGPSDM.mWGS84
SpeedMeteo Stationm/sRelative wind speed
DirectionMeteo StationdegRelative wind direction
TemperatureMeteo Stationdeg CelciusAir temperature
PressureMeteo StationPaAtmospheric pressure
HumidityMeteo Station%Relative humidity
Missing or incorrect values are displayed as -999
Metereological data collected by the RV Zeeleeuw from 2006-01-27 05:03:01 to 2006-01-27 20:00:48
                                                                                    Next 1000 lines
Time Latitude Longitude Speed Direction Temperature Pressure Humidity
2006-01-27 05:03:11 51°13.597 2°56.091 -999 43 -0.1 102420 70
2006-01-27 05:03:16 51°13.598 2°56.089 -999 315 -0.1 102420 70
2006-01-27 05:03:21 51°13.599 2°56.086 -999 316 -0.1 102420 70
2006-01-27 05:03:26 51°13.6 2°56.082 -999 323 -0.1 102420 70
2006-01-27 05:03:32 51°13.601 2°56.077 -999 317 -0.1 102420 70
2006-01-27 05:03:36 51°13.602 2°56.074 -999 321 -0.1 102420 70
2006-01-27 05:03:42 51°13.604 2°56.069 -999 325 -0.1 102420 70
2006-01-27 05:03:46 51°13.605 2°56.064 -999 299 -0.1 102420 70
2006-01-27 05:03:52 51°13.607 2°56.058 -999 301 -0.1 102420 70
2006-01-27 05:03:56 51°13.609 2°56.053 -999 277 -0.1 102420 70
2006-01-27 05:04:02 51°13.611 2°56.046 -999 311 -0.1 102420 70
2006-01-27 05:04:06 51°13.612 2°56.04 -999 316 -0.1 102420 70
2006-01-27 05:04:11 51°13.614 2°56.033 -999 308 -0.1 102420 70
2006-01-27 05:04:16 51°13.616 2°56.026 -999 327 -0.1 102420 70
2006-01-27 05:04:22 51°13.619 2°56.017 -999 265 -0.1 102420 70
2006-01-27 05:04:26 51°13.621 2°56.011 -999 244 -0.1 102420 70
2006-01-27 05:04:32 51°13.623 2°56.001 -999 238 -0.1 102420 70
2006-01-27 05:04:36 51°13.625 2°55.995 -999 230 -0.1 102420 70
2006-01-27 05:04:42 51°13.628 2°55.985 -999 247 -0.1 102420 70
2006-01-27 05:04:46 51°13.63 2°55.978 -999 239 -0.1 102420 70
2006-01-27 05:04:52 51°13.633 2°55.967 -999 216 -0.1 102420 70
2006-01-27 05:04:56 51°13.635 2°55.96 -999 227 -0.1 102420 70
2006-01-27 05:05:01 51°13.638 2°55.952 -999 259 -0.1 102420 70
2006-01-27 05:05:06 51°13.641 2°55.943 -999 292 -0.1 102420 70
2006-01-27 05:05:12 51°13.644 2°55.932 -999 301 -0.1 102420 70
2006-01-27 05:05:16 51°13.646 2°55.925 -999 232 -0.1 102420 70
2006-01-27 05:05:22 51°13.65 2°55.914 -999 283 -0.1 102420 70
2006-01-27 05:05:26 51°13.652 2°55.907 -999 307 -0.1 102420 70
2006-01-27 05:05:32 51°13.656 2°55.896 -999 317 -0.1 102420 70
2006-01-27 05:05:36 51°13.659 2°55.889 -999 310 -0.1 102420 70
2006-01-27 05:05:42 51°13.662 2°55.878 -999 314 -0.1 102420 70
2006-01-27 05:05:46 51°13.665 2°55.871 -999 305 -0.1 102430 70
2006-01-27 05:05:52 51°13.668 2°55.86 -999 301 -0.1 102430 70
2006-01-27 05:05:56 51°13.671 2°55.853 -999 308 -0.1 102420 70
2006-01-27 05:06:02 51°13.674 2°55.842 -999 296 -0.1 102420 70
2006-01-27 05:06:06 51°13.677 2°55.835 -999 302 -0.1 102420 70
2006-01-27 05:06:12 51°13.681 2°55.824 -999 310 -0.1 102420 70
2006-01-27 05:06:16 51°13.683 2°55.816 -999 313 -0.1 102420 70
2006-01-27 05:06:22 51°13.687 2°55.804 -999 308 -0.1 102420 70
2006-01-27 05:06:26 51°13.69 2°55.796 -999 312 -0.1 102420 70
2006-01-27 05:06:32 51°13.693 2°55.785 -999 306 -0.1 102420 70
2006-01-27 05:06:36 51°13.695 2°55.778 -999 306 -0.1 102420 70
2006-01-27 05:06:42 51°13.698 2°55.768 -999 228 -0.1 102420 70
2006-01-27 05:06:46 51°13.7 2°55.762 -999 227 -0.1 102420 70
2006-01-27 05:06:51 51°13.702 2°55.754 -999 331 -0.1 102420 70
2006-01-27 05:06:56 51°13.704 2°55.746 -999 337 -0.1 102420 70
2006-01-27 05:07:01 51°13.706 2°55.74 -999 332 -0.1 102420 70
2006-01-27 05:07:06 51°13.707 2°55.734 -999 331 -0.1 102420 70
2006-01-27 05:07:11 51°13.709 2°55.729 -999 317 -0.1 102420 70
2006-01-27 05:07:16 51°13.71 2°55.725 -999 351 -0.2 102420 70
2006-01-27 05:07:21 51°13.71 2°55.722 -999 359 -0.2 102420 70
2006-01-27 05:07:26 51°13.711 2°55.72 -999 6 -0.2 102420 69
2006-01-27 05:07:31 51°13.711 2°55.719 -999 17 -0.2 102420 69
2006-01-27 05:07:36 51°13.712 2°55.718 -999 29 -0.2 102420 69
2006-01-27 05:07:40 51°13.712 2°55.719 -999 16 -0.2 102420 69
2006-01-27 05:07:46 51°13.713 2°55.72 -999 27 -0.2 102410 70
2006-01-27 05:07:51 51°13.714 2°55.721 -999 30 -0.2 102410 70
2006-01-27 05:07:56 51°13.715 2°55.724 -999 32 -0.1 102410 70
2006-01-27 05:08:00 51°13.717 2°55.725 -999 31 -0.1 102410 70
2006-01-27 05:08:06 51°13.719 2°55.729 -999 42 -0.2 102420 70
2006-01-27 05:08:11 51°13.722 2°55.731 -999 66 -0.2 102420 70
2006-01-27 05:08:16 51°13.724 2°55.734 -999 31 -0.1 102410 70
2006-01-27 05:08:21 51°13.726 2°55.736 -999 58 -0.1 102410 70
2006-01-27 05:08:26 51°13.729 2°55.737 -999 40 -0.1 102410 70
2006-01-27 05:08:31 51°13.731 2°55.739 -999 33 -0.1 102410 70
2006-01-27 05:08:36 51°13.732 2°55.739 -999 35 -0.2 102410 69
2006-01-27 05:08:41 51°13.733 2°55.74 -999 106 -0.2 102410 69
2006-01-27 05:08:46 51°13.734 2°55.74 -999 107 -0.2 102410 69
2006-01-27 05:08:51 51°13.734 2°55.74 -999 85 -0.2 102410 69
2006-01-27 05:08:56 51°13.733 2°55.739 -999 95 -0.1 102420 69
2006-01-27 05:09:01 51°13.731 2°55.738 -999 109 -0.1 102420 69
2006-01-27 05:09:06 51°13.73 2°55.737 -999 107 -0.2 102420 70
2006-01-27 05:09:11 51°13.728 2°55.736 -999 130 -0.2 102420 70
2006-01-27 05:09:16 51°13.725 2°55.735 -999 115 -0.2 102410 69
2006-01-27 05:09:22 51°13.722 2°55.733 -999 105 -0.2 102410 69
2006-01-27 05:09:26 51°13.719 2°55.732 -999 102 -0.2 102410 69
2006-01-27 05:09:32 51°13.716 2°55.731 -999 99 -0.2 102410 69
2006-01-27 05:09:36 51°13.715 2°55.73 -999 89 -0.2 102410 69
2006-01-27 05:09:42 51°13.713 2°55.729 -999 100 -0.2 102410 69
2006-01-27 05:09:47 51°13.712 2°55.728 -999 102 -0.2 102410 69
2006-01-27 05:09:52 51°13.711 2°55.728 -999 110 -0.2 102410 69
2006-01-27 05:09:56 51°13.711 2°55.728 -999 94 -0.2 102420 69
2006-01-27 05:10:01 51°13.711 2°55.727 -999 78 -0.2 102420 69
2006-01-27 05:10:06 51°13.712 2°55.726 -999 74 -0.2 102410 69
2006-01-27 05:10:11 51°13.714 2°55.725 -999 92 -0.2 102410 69
2006-01-27 05:10:16 51°13.717 2°55.723 -999 100 -0.2 102420 69
2006-01-27 05:10:21 51°13.72 2°55.72 -999 76 -0.2 102420 69
2006-01-27 05:10:26 51°13.725 2°55.716 -999 95 -0.2 102410 69
2006-01-27 05:10:32 51°13.731 2°55.71 -999 69 -0.2 102410 69
2006-01-27 05:10:36 51°13.736 2°55.706 -999 70 -0.2 102410 69
2006-01-27 05:10:41 51°13.744 2°55.7 -999 51 -0.2 102410 69
2006-01-27 05:10:46 51°13.752 2°55.693 -999 74 -0.2 102410 68
2006-01-27 05:10:51 51°13.76 2°55.686 -999 51 -0.2 102410 68
2006-01-27 05:10:56 51°13.769 2°55.679 -999 45 -0.2 102410 68
2006-01-27 05:11:01 51°13.779 2°55.671 -999 62 -0.2 102410 68
2006-01-27 05:11:06 51°13.789 2°55.664 -999 83 -0.2 102410 68
2006-01-27 05:11:11 51°13.8 2°55.656 -999 30 -0.2 102410 68
2006-01-27 05:11:16 51°13.811 2°55.649 -999 26 -0.2 102410 68
2006-01-27 05:11:20 51°13.82 2°55.643 -999 18 -0.2 102410 68
2006-01-27 05:11:26 51°13.833 2°55.634 -999 19 -0.2 102410 68
2006-01-27 05:11:31 51°13.844 2°55.626 -999 22 -0.2 102410 68
2006-01-27 05:11:36 51°13.855 2°55.619 -999 43 -0.2 102410 68
2006-01-27 05:11:41 51°13.866 2°55.611 -999 43 -0.2 102410 68
2006-01-27 05:11:46 51°13.876 2°55.604 -999 54 -0.2 102410 68
2006-01-27 05:11:51 51°13.887 2°55.596 -999 58 -0.2 102410 68
2006-01-27 05:11:56 51°13.898 2°55.589 -999 63 -0.2 102420 68
2006-01-27 05:12:01 51°13.909 2°55.582 -999 76 -0.2 102420 68
2006-01-27 05:12:06 51°13.92 2°55.574 -999 81 -0.2 102410 68
2006-01-27 05:12:11 51°13.931 2°55.566 -999 90 -0.2 102410 68
2006-01-27 05:12:16 51°13.942 2°55.559 -999 74 -0.2 102410 68
2006-01-27 05:12:21 51°13.953 2°55.551 -999 67 -0.2 102410 68
2006-01-27 05:12:26 51°13.965 2°55.543 -999 75 -0.2 102400 68
2006-01-27 05:12:31 51°13.976 2°55.534 -999 82 -0.2 102400 68
2006-01-27 05:12:36 51°13.988 2°55.526 -999 73 -0.2 102410 68
2006-01-27 05:12:42 51°14.001 2°55.517 -999 62 -0.2 102410 68
2006-01-27 05:12:46 51°14.01 2°55.51 -999 57 -0.2 102410 68
2006-01-27 05:12:52 51°14.024 2°55.5 -999 50 -0.2 102410 68
2006-01-27 05:12:56 51°14.033 2°55.493 -999 66 -0.2 102410 68
2006-01-27 05:13:01 51°14.045 2°55.484 -999 63 -0.2 102410 68
2006-01-27 05:13:06 51°14.056 2°55.476 -999 47 -0.3 102410 68
2006-01-27 05:13:11 51°14.068 2°55.467 -999 71 -0.3 102410 68
2006-01-27 05:13:16 51°14.08 2°55.458 -999 78 -0.2 102410 69
2006-01-27 05:13:22 51°14.094 2°55.447 -999 71 -0.2 102410 69
2006-01-27 05:13:26 51°14.103 2°55.439 -999 69 -0.2 102410 69
2006-01-27 05:13:32 51°14.118 2°55.427 -999 62 -0.2 102410 69
2006-01-27 05:13:36 51°14.127 2°55.418 -999 63 -0.2 102410 69
2006-01-27 05:13:42 51°14.142 2°55.405 -999 53 -0.2 102410 69
2006-01-27 05:13:47 51°14.154 2°55.394 -999 45 -0.2 102410 68
2006-01-27 05:13:52 51°14.166 2°55.382 -999 64 -0.2 102410 68
2006-01-27 05:13:56 51°14.175 2°55.372 -999 65 -0.2 102410 68
2006-01-27 05:14:02 51°14.189 2°55.356 -999 78 -0.2 102410 68
2006-01-27 05:14:06 51°14.198 2°55.346 -999 69 -0.2 102410 68
2006-01-27 05:14:12 51°14.211 2°55.328 -999 48 -0.2 102410 68
2006-01-27 05:14:16 51°14.22 2°55.317 -999 57 -0.2 102410 68
2006-01-27 05:14:21 51°14.231 2°55.302 -999 49 -0.2 102410 68
2006-01-27 05:14:27 51°14.243 2°55.284 -999 58 -0.2 102410 68
2006-01-27 05:14:32 51°14.253 2°55.268 -999 72 -0.2 102410 68
2006-01-27 05:14:36 51°14.261 2°55.255 -999 62 -0.2 102410 68
2006-01-27 05:14:42 51°14.273 2°55.235 -999 75 -0.2 102410 68
2006-01-27 05:14:46 51°14.281 2°55.222 -999 70 -0.3 102410 68
2006-01-27 05:14:51 51°14.291 2°55.204 -999 58 -0.3 102410 68
2006-01-27 05:14:56 51°14.3 2°55.188 -999 80 -0.2 102410 68
2006-01-27 05:15:02 51°14.311 2°55.166 -999 75 -0.2 102410 68
2006-01-27 05:15:06 51°14.318 2°55.152 -999 22 -0.3 102410 69
2006-01-27 05:15:12 51°14.329 2°55.13 -999 24 -0.3 102410 69
2006-01-27 05:15:16 51°14.336 2°55.116 -999 26 -0.2 102410 69
2006-01-27 05:15:22 51°14.346 2°55.095 -999 58 -0.2 102410 69
2006-01-27 05:15:26 51°14.353 2°55.08 -999 65 -0.2 102400 69
2006-01-27 05:15:31 51°14.361 2°55.061 -999 75 -0.2 102400 69
2006-01-27 05:15:36 51°14.369 2°55.042 -999 71 -0.2 102410 70
2006-01-27 05:15:41 51°14.377 2°55.023 -999 70 -0.2 102410 70
2006-01-27 05:15:46 51°14.384 2°55.003 -999 71 -0.2 102410 70
2006-01-27 05:15:51 51°14.391 2°54.983 -999 77 -0.2 102410 70
2006-01-27 05:15:56 51°14.396 2°54.961 -999 89 -0.2 102410 69
2006-01-27 05:16:01 51°14.401 2°54.938 -999 89 -0.2 102410 69
2006-01-27 05:16:06 51°14.406 2°54.915 -999 99 -0.3 102400 69
2006-01-27 05:16:11 51°14.411 2°54.891 -999 93 -0.3 102400 69
2006-01-27 05:16:16 51°14.414 2°54.867 -999 90 -0.3 102410 69
2006-01-27 05:16:21 51°14.418 2°54.843 -999 78 -0.3 102410 69
2006-01-27 05:16:26 51°14.421 2°54.817 -999 63 -0.3 102410 68
2006-01-27 05:16:31 51°14.423 2°54.791 -999 33 -0.3 102410 68
2006-01-27 05:16:36 51°14.426 2°54.764 -999 25 -0.2 102410 68
2006-01-27 05:16:41 51°14.426 2°54.736 -999 8 -0.2 102410 68
2006-01-27 05:16:46 51°14.427 2°54.709 -999 322 -0.2 102410 68
2006-01-27 05:16:51 51°14.426 2°54.68 -999 322 -0.2 102410 68
2006-01-27 05:16:56 51°14.425 2°54.652 -999 319 -0.3 102410 68
2006-01-27 05:17:01 51°14.424 2°54.623 -999 353 -0.3 102410 68
2006-01-27 05:17:06 51°14.422 2°54.593 -999 338 -0.3 102410 68
2006-01-27 05:17:11 51°14.419 2°54.564 -999 311 -0.3 102410 68
2006-01-27 05:17:16 51°14.416 2°54.535 -999 318 -0.3 102410 68
2006-01-27 05:17:20 51°14.413 2°54.511 -999 320 -0.3 102410 68
2006-01-27 05:17:26 51°14.411 2°54.476 -999 356 -0.3 102410 68
2006-01-27 05:17:31 51°14.409 2°54.446 -999 10 -0.3 102410 68
2006-01-27 05:17:36 51°14.407 2°54.415 -999 20 -0.3 102410 68
2006-01-27 05:17:40 51°14.406 2°54.391 -999 9 -0.3 102410 68
2006-01-27 05:17:46 51°14.401 2°54.355 -999 352 -0.3 102400 68
2006-01-27 05:17:51 51°14.397 2°54.326 -999 330 -0.3 102400 68
2006-01-27 05:17:56 51°14.391 2°54.297 -999 350 -0.3 102400 68
2006-01-27 05:18:01 51°14.384 2°54.269 -999 315 -0.3 102400 68
2006-01-27 05:18:06 51°14.376 2°54.241 -999 308 -0.3 102410 68
2006-01-27 05:18:11 51°14.369 2°54.213 -999 307 -0.3 102410 68
2006-01-27 05:18:16 51°14.361 2°54.184 -999 309 -0.3 102420 68
2006-01-27 05:18:21 51°14.353 2°54.155 -999 301 -0.3 102420 68
2006-01-27 05:18:26 51°14.347 2°54.126 -999 316 -0.3 102390 68
2006-01-27 05:18:31 51°14.339 2°54.098 -999 300 -0.3 102390 68
2006-01-27 05:18:36 51°14.333 2°54.068 -999 323 -0.3 102400 68
2006-01-27 05:18:41 51°14.326 2°54.039 -999 310 -0.3 102400 68
2006-01-27 05:18:46 51°14.32 2°54.009 -999 318 -0.3 102420 68
2006-01-27 05:18:51 51°14.313 2°53.981 -999 333 -0.3 102420 68
2006-01-27 05:18:56 51°14.306 2°53.951 -999 348 -0.3 102420 68
2006-01-27 05:19:01 51°14.298 2°53.923 -999 346 -0.3 102420 68
2006-01-27 05:19:06 51°14.29 2°53.894 -999 338 -0.3 102410 68
2006-01-27 05:19:11 51°14.282 2°53.865 -999 332 -0.3 102410 68
2006-01-27 05:19:16 51°14.273 2°53.837 -999 333 -0.3 102420 68
2006-01-27 05:19:20 51°14.266 2°53.814 -999 338 -0.3 102420 68
2006-01-27 05:19:26 51°14.256 2°53.78 -999 342 -0.3 102410 68
2006-01-27 05:19:31 51°14.246 2°53.753 -999 332 -0.3 102410 68
2006-01-27 05:19:36 51°14.238 2°53.724 -999 344 -0.3 102410 68
2006-01-27 05:19:40 51°14.23 2°53.702 -999 318 -0.3 102410 68
2006-01-27 05:19:46 51°14.219 2°53.668 -999 329 -0.3 102410 68
2006-01-27 05:19:51 51°14.21 2°53.64 -999 42 -0.3 102410 68
2006-01-27 05:19:56 51°14.2 2°53.612 -999 314 -0.3 102420 68
2006-01-27 05:20:01 51°14.191 2°53.584 -999 324 -0.3 102420 68
2006-01-27 05:20:06 51°14.181 2°53.558 -999 41 -0.3 102410 68
2006-01-27 05:20:11 51°14.171 2°53.531 -999 316 -0.3 102410 68
2006-01-27 05:20:16 51°14.16 2°53.505 -999 312 -0.3 102410 68
2006-01-27 05:20:21 51°14.15 2°53.478 -999 313 -0.3 102410 68
2006-01-27 05:20:26 51°14.139 2°53.452 -999 329 -0.3 102410 68
2006-01-27 05:20:31 51°14.129 2°53.426 -999 314 -0.3 102410 68
2006-01-27 05:20:36 51°14.118 2°53.4 -999 313 -0.3 102400 68
2006-01-27 05:20:41 51°14.108 2°53.373 -999 315 -0.3 102400 68
2006-01-27 05:20:46 51°14.098 2°53.346 -999 315 -0.3 102390 68
2006-01-27 05:20:51 51°14.089 2°53.319 -999 311 -0.3 102390 68
2006-01-27 05:20:56 51°14.08 2°53.291 -999 226 -0.3 102400 68
2006-01-27 05:21:01 51°14.071 2°53.265 -999 310 -0.3 102400 68
2006-01-27 05:21:06 51°14.062 2°53.236 -999 327 -0.2 102400 69
2006-01-27 05:21:11 51°14.053 2°53.208 -999 226 -0.2 102400 69
2006-01-27 05:21:16 51°14.044 2°53.181 -999 315 -0.2 102400 68
2006-01-27 05:21:21 51°14.034 2°53.153 -999 319 -0.2 102400 68
2006-01-27 05:21:26 51°14.026 2°53.126 -999 329 -0.3 102400 68
2006-01-27 05:21:31 51°14.016 2°53.099 -999 318 -0.3 102400 68
2006-01-27 05:21:36 51°14.006 2°53.071 -999 228 -0.3 102400 68
2006-01-27 05:21:41 51°13.997 2°53.044 -999 318 -0.3 102400 68
2006-01-27 05:21:46 51°13.987 2°53.017 -999 316 -0.2 102400 68
2006-01-27 05:21:51 51°13.978 2°52.989 -999 321 -0.2 102400 68
2006-01-27 05:21:56 51°13.968 2°52.963 -999 318 -0.3 102400 68
2006-01-27 05:22:00 51°13.96 2°52.941 -999 321 -0.3 102400 68
2006-01-27 05:22:06 51°13.948 2°52.909 -999 322 -0.2 102420 68
2006-01-27 05:22:11 51°13.939 2°52.881 -999 333 -0.2 102420 68
2006-01-27 05:22:16 51°13.928 2°52.856 -999 40 -0.2 102410 68
2006-01-27 05:22:21 51°13.919 2°52.827 -999 328 -0.2 102410 68
2006-01-27 05:22:26 51°13.909 2°52.8 -999 314 -0.2 102410 68
2006-01-27 05:22:31 51°13.899 2°52.773 -999 302 -0.2 102410 68
2006-01-27 05:22:36 51°13.891 2°52.745 -999 306 -0.2 102410 69
2006-01-27 05:22:41 51°13.88 2°52.718 -999 228 -0.2 102410 69
2006-01-27 05:22:46 51°13.872 2°52.691 -999 316 -0.2 102410 69
2006-01-27 05:22:51 51°13.86 2°52.665 -999 301 -0.2 102410 69
2006-01-27 05:22:56 51°13.853 2°52.636 -999 320 -0.2 102410 69
2006-01-27 05:23:01 51°13.841 2°52.611 -999 312 -0.2 102410 69
2006-01-27 05:23:06 51°13.834 2°52.582 -999 337 -0.2 102400 68
2006-01-27 05:23:11 51°13.823 2°52.556 -999 310 -0.2 102400 68
2006-01-27 05:23:16 51°13.815 2°52.527 -999 317 -0.2 102410 68
2006-01-27 05:23:21 51°13.804 2°52.502 -999 316 -0.2 102410 68
2006-01-27 05:23:26 51°13.795 2°52.473 -999 319 -0.2 102410 68
2006-01-27 05:23:31 51°13.784 2°52.447 -999 304 -0.2 102410 68
2006-01-27 05:23:36 51°13.776 2°52.419 -999 310 -0.2 102410 68
2006-01-27 05:23:41 51°13.765 2°52.393 -999 319 -0.2 102410 68
2006-01-27 05:23:46 51°13.756 2°52.365 -999 310 -0.2 102410 68
2006-01-27 05:23:51 51°13.746 2°52.338 -999 310 -0.2 102410 68
2006-01-27 05:23:56 51°13.735 2°52.31 -999 314 -0.2 102410 68
2006-01-27 05:24:01 51°13.727 2°52.283 -999 322 -0.2 102410 68
2006-01-27 05:24:06 51°13.715 2°52.257 -999 42 -0.2 102410 68
2006-01-27 05:24:11 51°13.707 2°52.228 -999 322 -0.2 102410 68
2006-01-27 05:24:16 51°13.696 2°52.202 -999 310 -0.2 102410 68
2006-01-27 05:24:21 51°13.687 2°52.173 -999 323 -0.2 102410 68
2006-01-27 05:24:26 51°13.676 2°52.146 -999 290 -0.2 102400 68
2006-01-27 05:24:31 51°13.666 2°52.119 -999 295 -0.2 102400 68
2006-01-27 05:24:36 51°13.656 2°52.092 -999 291 -0.2 102410 68
2006-01-27 05:24:41 51°13.646 2°52.064 -999 295 -0.2 102410 68
2006-01-27 05:24:46 51°13.635 2°52.037 -999 295 -0.2 102410 68
2006-01-27 05:24:51 51°13.624 2°52.01 -999 304 -0.2 102410 68
2006-01-27 05:24:56 51°13.615 2°51.982 -999 314 -0.2 102410 69
2006-01-27 05:25:01 51°13.603 2°51.956 -999 309 -0.2 102410 69
2006-01-27 05:25:06 51°13.594 2°51.927 -999 319 -0.1 102410 69
2006-01-27 05:25:11 51°13.583 2°51.9 -999 303 -0.1 102410 69
2006-01-27 05:25:16 51°13.573 2°51.873 -999 302 -0.2 102410 69
2006-01-27 05:25:21 51°13.562 2°51.846 -999 295 -0.2 102410 69
2006-01-27 05:25:26 51°13.553 2°51.816 -999 308 -0.2 102410 69
2006-01-27 05:25:31 51°13.541 2°51.791 -999 292 -0.2 102410 69
2006-01-27 05:25:36 51°13.531 2°51.764 -999 315 -0.2 102410 68
2006-01-27 05:25:41 51°13.521 2°51.735 -999 304 -0.2 102410 68
2006-01-27 05:25:46 51°13.509 2°51.709 -999 304 -0.1 102420 68
2006-01-27 05:25:51 51°13.5 2°51.681 -999 314 -0.1 102420 68
2006-01-27 05:25:56 51°13.488 2°51.655 -999 309 -0.1 102410 68
2006-01-27 05:26:01 51°13.48 2°51.626 -999 317 -0.1 102410 68
2006-01-27 05:26:06 51°13.468 2°51.6 -999 307 -0.1 102410 68
2006-01-27 05:26:11 51°13.459 2°51.571 -999 227 -0.1 102410 68
2006-01-27 05:26:16 51°13.448 2°51.545 -999 312 -0.1 102410 68
2006-01-27 05:26:21 51°13.439 2°51.516 -999 326 -0.1 102410 68
2006-01-27 05:26:26 51°13.428 2°51.489 -999 305 -0.1 102400 68
2006-01-27 05:26:31 51°13.418 2°51.463 -999 309 -0.1 102400 68
2006-01-27 05:26:36 51°13.407 2°51.435 -999 305 -0.1 102410 68
2006-01-27 05:26:41 51°13.397 2°51.407 -999 229 -0.1 102410 68
2006-01-27 05:26:46 51°13.387 2°51.381 -999 301 -0.1 102410 68
2006-01-27 05:26:51 51°13.377 2°51.353 -999 286 -0.1 102410 68
2006-01-27 05:26:56 51°13.367 2°51.325 -999 282 -0.1 102410 68
2006-01-27 05:27:00 51°13.358 2°51.305 -999 310 -0.1 102410 68
2006-01-27 05:27:06 51°13.347 2°51.271 -999 317 -0.1 102400 68
2006-01-27 05:27:11 51°13.336 2°51.244 -999 307 -0.1 102400 68
2006-01-27 05:27:16 51°13.327 2°51.216 -999 319 -0.1 102410 68
2006-01-27 05:27:21 51°13.316 2°51.189 -999 304 -0.1 102410 68
2006-01-27 05:27:26 51°13.305 2°51.162 -999 301 -0.1 102420 68
2006-01-27 05:27:31 51°13.296 2°51.134 -999 310 -0.1 102420 68
2006-01-27 05:27:36 51°13.284 2°51.108 -999 304 -0.1 102400 68
2006-01-27 05:27:41 51°13.274 2°51.08 -999 307 -0.1 102400 68
2006-01-27 05:27:46 51°13.263 2°51.055 -999 309 -0.1 102400 68
2006-01-27 05:27:51 51°13.252 2°51.026 -999 307 -0.1 102400 68
2006-01-27 05:27:56 51°13.243 2°50.999 -999 293 -0.1 102400 68
2006-01-27 05:28:01 51°13.231 2°50.973 -999 276 -0.1 102400 68
2006-01-27 05:28:06 51°13.222 2°50.944 -999 261 -0.1 102410 68
2006-01-27 05:28:11 51°13.212 2°50.918 -999 296 -0.1 102410 68
2006-01-27 05:28:16 51°13.201 2°50.891 -999 42 -0.1 102410 68
2006-01-27 05:28:21 51°13.191 2°50.863 -999 39 -0.1 102410 68
2006-01-27 05:28:26 51°13.181 2°50.836 -999 311 -0.1 102410 68
2006-01-27 05:28:31 51°13.169 2°50.809 -999 306 -0.1 102410 68
2006-01-27 05:28:36 51°13.16 2°50.782 -999 311 -0.1 102410 68
2006-01-27 05:28:40 51°13.15 2°50.761 -999 303 -0.1 102410 68
2006-01-27 05:28:46 51°13.138 2°50.728 -999 314 -0.1 102400 68
2006-01-27 05:28:51 51°13.127 2°50.701 -999 296 -0.1 102400 68
2006-01-27 05:28:56 51°13.117 2°50.674 -999 314 -0.1 102410 68
2006-01-27 05:29:01 51°13.106 2°50.648 -999 340 -0.1 102410 68
2006-01-27 05:29:06 51°13.097 2°50.619 -999 331 -0.1 102410 68
2006-01-27 05:29:11 51°13.086 2°50.592 -999 314 -0.1 102410 68
2006-01-27 05:29:16 51°13.076 2°50.566 -999 230 -0.1 102410 68
2006-01-27 05:29:21 51°13.066 2°50.537 -999 319 -0.1 102410 68
2006-01-27 05:29:26 51°13.054 2°50.512 -999 308 -0.1 102400 68
2006-01-27 05:29:31 51°13.045 2°50.483 -999 331 -0.1 102400 68
2006-01-27 05:29:36 51°13.033 2°50.458 -999 228 -0.1 102400 68
2006-01-27 05:29:41 51°13.023 2°50.43 -999 307 -0.1 102400 68
2006-01-27 05:29:46 51°13.012 2°50.404 -999 315 -0.1 102400 68
2006-01-27 05:29:51 51°13.002 2°50.377 -999 311 -0.1 102400 68
2006-01-27 05:29:56 51°12.991 2°50.35 -999 308 -0.1 102400 68
2006-01-27 05:30:01 51°12.981 2°50.322 -999 311 -0.1 102400 68
2006-01-27 05:30:06 51°12.971 2°50.295 -999 312 -0.1 102400 68
2006-01-27 05:30:11 51°12.96 2°50.268 -999 317 -0.1 102400 68
2006-01-27 05:30:16 51°12.948 2°50.241 -999 321 -0.1 102410 68
2006-01-27 05:30:21 51°12.94 2°50.211 -999 334 -0.1 102410 68
2006-01-27 05:30:26 51°12.928 2°50.186 -999 316 -0.1 102400 68
2006-01-27 05:30:31 51°12.919 2°50.157 -999 328 -0.1 102400 68
2006-01-27 05:30:36 51°12.909 2°50.13 -999 321 -0.1 102400 68
2006-01-27 05:30:40 51°12.901 2°50.108 -999 328 -0.1 102400 68
2006-01-27 05:30:46 51°12.89 2°50.073 -999 332 -0.1 102390 67
2006-01-27 05:30:51 51°12.88 2°50.046 -999 334 -0.1 102390 67
2006-01-27 05:30:56 51°12.87 2°50.017 -999 335 -0.1 102400 67
2006-01-27 05:31:01 51°12.861 2°49.989 -999 328 -0.1 102400 67
2006-01-27 05:31:06 51°12.851 2°49.961 -999 325 -0.1 102400 67
2006-01-27 05:31:11 51°12.842 2°49.932 -999 324 -0.1 102400 67
2006-01-27 05:31:16 51°12.833 2°49.903 -999 43 -0.1 102400 67
2006-01-27 05:31:21 51°12.822 2°49.874 -999 311 -0.1 102400 67
2006-01-27 05:31:26 51°12.815 2°49.845 -999 38 -0.1 102400 67
2006-01-27 05:31:31 51°12.804 2°49.816 -999 327 -0.1 102400 67
2006-01-27 05:31:36 51°12.796 2°49.786 -999 3 -0.1 102410 67
2006-01-27 05:31:41 51°12.785 2°49.758 -999 233 -0.1 102410 67
2006-01-27 05:31:46 51°12.778 2°49.728 -999 43 -0.1 102410 67
2006-01-27 05:31:51 51°12.767 2°49.701 -999 295 -0.1 102410 67
2006-01-27 05:31:56 51°12.758 2°49.671 -999 299 -0.1 102410 67
2006-01-27 05:32:01 51°12.748 2°49.642 -999 296 -0.1 102410 67
2006-01-27 05:32:06 51°12.739 2°49.613 -999 309 -0.1 102410 68
2006-01-27 05:32:11 51°12.729 2°49.585 -999 302 -0.1 102410 68
2006-01-27 05:32:16 51°12.72 2°49.555 -999 296 -0.1 102400 68
2006-01-27 05:32:21 51°12.71 2°49.527 -999 291 -0.1 102400 68
2006-01-27 05:32:26 51°12.699 2°49.499 -999 296 -0.1 102410 68
2006-01-27 05:32:31 51°12.69 2°49.469 -999 306 -0.1 102410 68
2006-01-27 05:32:36 51°12.68 2°49.442 -999 303 -0.1 102410 68
2006-01-27 05:32:40 51°12.673 2°49.418 -999 311 -0.1 102410 68
2006-01-27 05:32:46 51°12.66 2°49.384 -999 302 -0.1 102400 68
2006-01-27 05:32:51 51°12.651 2°49.354 -999 303 -0.1 102400 68
2006-01-27 05:32:56 51°12.641 2°49.325 -999 296 -0.1 102410 68
2006-01-27 05:33:01 51°12.632 2°49.296 -999 309 -0.1 102410 68
2006-01-27 05:33:06 51°12.622 2°49.267 -999 309 -0.1 102400 68
2006-01-27 05:33:11 51°12.613 2°49.237 -999 322 -0.1 102400 68
2006-01-27 05:33:16 51°12.603 2°49.208 -999 313 -0.1 102410 68
2006-01-27 05:33:21 51°12.594 2°49.179 -999 310 -0.1 102410 68
2006-01-27 05:33:26 51°12.584 2°49.151 -999 303 -0.1 102410 68
2006-01-27 05:33:31 51°12.575 2°49.123 -999 307 -0.1 102410 68
2006-01-27 05:33:36 51°12.564 2°49.094 -999 298 -0.1 102410 68
2006-01-27 05:33:41 51°12.554 2°49.065 -999 298 -0.1 102410 68
2006-01-27 05:33:46 51°12.544 2°49.036 -999 314 -0.1 102410 67
2006-01-27 05:33:51 51°12.536 2°49.007 -999 314 -0.1 102410 67
2006-01-27 05:33:56 51°12.525 2°48.98 -999 324 -0.1 102410 68
2006-01-27 05:34:01 51°12.516 2°48.951 -999 329 -0.1 102410 68
2006-01-27 05:34:06 51°12.506 2°48.922 -999 318 -0.1 102410 68
2006-01-27 05:34:11 51°12.497 2°48.894 -999 304 -0.1 102410 68
2006-01-27 05:34:16 51°12.489 2°48.865 -999 294 -0.1 102400 68
2006-01-27 05:34:21 51°12.479 2°48.836 -999 301 -0.1 102400 68
2006-01-27 05:34:26 51°12.469 2°48.808 -999 295 -0.1 102410 68
2006-01-27 05:34:31 51°12.461 2°48.779 -999 286 -0.1 102410 68
2006-01-27 05:34:36 51°12.451 2°48.75 -999 294 -0.1 102410 68
2006-01-27 05:34:41 51°12.442 2°48.721 -999 309 -0.1 102410 68
2006-01-27 05:34:46 51°12.432 2°48.694 -999 300 -0.1 102400 68
2006-01-27 05:34:51 51°12.423 2°48.664 -999 294 -0.1 102400 68
2006-01-27 05:34:56 51°12.414 2°48.636 -999 305 -0.1 102410 68
2006-01-27 05:35:00 51°12.406 2°48.613 -999 295 -0.1 102410 68
2006-01-27 05:35:06 51°12.394 2°48.579 -999 298 -0.1 102410 68
2006-01-27 05:35:11 51°12.384 2°48.55 -999 309 -0.1 102410 68
2006-01-27 05:35:16 51°12.374 2°48.522 -999 304 -0.1 102410 68
2006-01-27 05:35:20 51°12.366 2°48.5 -999 313 -0.1 102410 68
2006-01-27 05:35:26 51°12.353 2°48.466 -999 297 -0.1 102410 68
2006-01-27 05:35:31 51°12.343 2°48.436 -999 301 -0.1 102410 68
2006-01-27 05:35:36 51°12.333 2°48.409 -999 290 -0.1 102410 68
2006-01-27 05:35:41 51°12.323 2°48.381 -999 293 -0.1 102410 68
2006-01-27 05:35:46 51°12.312 2°48.353 -999 298 -999 102400 68
2006-01-27 05:35:51 51°12.303 2°48.324 -999 291 -999 102400 68
2006-01-27 05:35:56 51°12.292 2°48.296 -999 290 -0.1 102400 68
2006-01-27 05:36:01 51°12.282 2°48.268 -999 289 -0.1 102400 68
2006-01-27 05:36:06 51°12.271 2°48.24 -999 292 -999 102410 68
2006-01-27 05:36:11 51°12.261 2°48.211 -999 318 -999 102410 68
2006-01-27 05:36:16 51°12.25 2°48.185 -999 41 -999 102400 68
2006-01-27 05:36:21 51°12.239 2°48.157 -999 311 -999 102400 68
2006-01-27 05:36:26 51°12.229 2°48.127 -999 42 -999 102400 68
2006-01-27 05:36:31 51°12.218 2°48.101 -999 292 -999 102400 68
2006-01-27 05:36:36 51°12.208 2°48.073 -999 299 -999 102400 68
2006-01-27 05:36:41 51°12.198 2°48.045 -999 303 -999 102400 68
2006-01-27 05:36:46 51°12.187 2°48.018 -999 303 -999 102410 69
2006-01-27 05:36:51 51°12.178 2°47.989 -999 292 -999 102410 69
2006-01-27 05:36:56 51°12.167 2°47.962 -999 290 -999 102400 69
2006-01-27 05:37:00 51°12.16 2°47.939 -999 305 -999 102400 69
2006-01-27 05:37:06 51°12.148 2°47.905 -999 298 -999 102400 69
2006-01-27 05:37:11 51°12.137 2°47.878 -999 297 -999 102400 69
2006-01-27 05:37:16 51°12.129 2°47.848 -999 303 -999 102400 69
2006-01-27 05:37:20 51°12.12 2°47.827 -999 297 -999 102400 69
2006-01-27 05:37:26 51°12.108 2°47.793 -999 298 -999 102400 69
2006-01-27 05:37:31 51°12.098 2°47.764 -999 281 -999 102400 69
2006-01-27 05:37:36 51°12.087 2°47.736 -999 297 -999 102410 69
2006-01-27 05:37:41 51°12.078 2°47.708 -999 302 -999 102410 69
2006-01-27 05:37:46 51°12.066 2°47.68 -999 305 -999 102390 68
2006-01-27 05:37:51 51°12.056 2°47.651 -999 311 -999 102390 68
2006-01-27 05:37:56 51°12.046 2°47.623 -999 292 -999 102400 68
2006-01-27 05:38:01 51°12.036 2°47.594 -999 303 -999 102400 68
2006-01-27 05:38:06 51°12.026 2°47.566 -999 301 -999 102390 68
2006-01-27 05:38:11 51°12.016 2°47.537 -999 296 -999 102390 68
2006-01-27 05:38:16 51°12.007 2°47.508 -999 293 -999 102400 69
2006-01-27 05:38:21 51°11.997 2°47.48 -999 296 -999 102400 69
2006-01-27 05:38:26 51°11.988 2°47.449 -999 290 -999 102400 69
2006-01-27 05:38:31 51°11.976 2°47.421 -999 289 -999 102400 69
2006-01-27 05:38:36 51°11.969 2°47.391 -999 292 -999 102410 69
2006-01-27 05:38:41 51°11.957 2°47.364 -999 297 -999 102410 69
2006-01-27 05:38:46 51°11.948 2°47.333 -999 297 -999 102400 69
2006-01-27 05:38:51 51°11.939 2°47.306 -999 287 -999 102400 69
2006-01-27 05:38:56 51°11.928 2°47.278 -999 288 -999 102410 68
2006-01-27 05:39:01 51°11.919 2°47.247 -999 311 -999 102410 68
2006-01-27 05:39:06 51°11.908 2°47.22 -999 293 -999 102400 68
2006-01-27 05:39:11 51°11.898 2°47.192 -999 286 -999 102400 68
2006-01-27 05:39:16 51°11.889 2°47.163 -999 283 -999 102400 68
2006-01-27 05:39:21 51°11.877 2°47.135 -999 287 -999 102400 68
2006-01-27 05:39:26 51°11.869 2°47.104 -999 287 -999 102390 68
2006-01-27 05:39:31 51°11.857 2°47.078 -999 304 -999 102390 68
2006-01-27 05:39:36 51°11.849 2°47.048 -999 301 -999 102390 68
2006-01-27 05:39:41 51°11.84 2°47.019 -999 310 -999 102390 68
2006-01-27 05:39:46 51°11.831 2°46.989 -999 311 -999 -999 68
2006-01-27 05:39:51 51°11.822 2°46.96 -999 297 -999 -999 68
2006-01-27 05:39:56 51°11.813 2°46.931 -999 291 -999 102380 68
2006-01-27 05:40:01 51°11.806 2°46.902 -999 275 -999 102380 68
2006-01-27 05:40:06 51°11.796 2°46.873 -999 281 -999 102280 68
2006-01-27 05:40:11 51°11.788 2°46.843 -999 300 -999 102280 68
2006-01-27 05:40:16 51°11.779 2°46.815 -999 272 -999 102290 69
2006-01-27 05:40:21 51°11.77 2°46.785 -999 286 -999 102290 69
2006-01-27 05:40:26 51°11.762 2°46.756 -999 276 -999 102290 69
2006-01-27 05:40:31 51°11.752 2°46.728 -999 284 -999 102290 69
2006-01-27 05:40:36 51°11.744 2°46.698 -999 276 -999 102290 69
2006-01-27 05:40:41 51°11.734 2°46.67 -999 268 -999 102290 69
2006-01-27 05:40:46 51°11.727 2°46.64 -999 262 -999 102280 68
2006-01-27 05:40:51 51°11.716 2°46.611 -999 274 -999 102280 68
2006-01-27 05:40:56 51°11.71 2°46.58 -999 255 -999 102290 68
2006-01-27 05:41:01 51°11.698 2°46.554 -999 271 -999 102290 68
2006-01-27 05:41:06 51°11.691 2°46.523 -999 254 -999 102280 68
2006-01-27 05:41:11 51°11.681 2°46.495 -999 270 -999 102280 68
2006-01-27 05:41:16 51°11.674 2°46.465 -999 263 -999 102290 68
2006-01-27 05:41:21 51°11.664 2°46.436 -999 284 -999 102290 68
2006-01-27 05:41:26 51°11.656 2°46.405 -999 266 -999 102280 68
2006-01-27 05:41:31 51°11.647 2°46.377 -999 282 -999 102280 68
2006-01-27 05:41:36 51°11.638 2°46.347 -999 268 -999 102290 68
2006-01-27 05:41:41 51°11.629 2°46.318 -999 266 -999 102290 68
2006-01-27 05:41:46 51°11.62 2°46.289 -999 261 -999 102350 68
2006-01-27 05:41:51 51°11.612 2°46.26 -999 250 -999 102350 68
2006-01-27 05:41:56 51°11.603 2°46.231 -999 253 -999 102280 68
2006-01-27 05:42:01 51°11.595 2°46.201 -999 256 -999 102280 68
2006-01-27 05:42:06 51°11.587 2°46.172 -999 258 -999 102280 68
2006-01-27 05:42:11 51°11.578 2°46.142 -999 236 -999 102280 68
2006-01-27 05:42:16 51°11.57 2°46.113 -999 238 -999 102290 68
2006-01-27 05:42:21 51°11.561 2°46.083 -999 250 -999 102290 68
2006-01-27 05:42:26 51°11.553 2°46.054 -999 243 -999 102280 68
2006-01-27 05:42:31 51°11.544 2°46.025 -999 244 -999 102280 68
2006-01-27 05:42:36 51°11.536 2°45.995 -999 233 -999 102290 68
2006-01-27 05:42:40 51°11.529 2°45.972 -999 249 -999 102290 68
2006-01-27 05:42:46 51°11.52 2°45.935 -999 252 -999 102280 68
2006-01-27 05:42:51 51°11.512 2°45.906 -999 248 -999 102280 68
2006-01-27 05:42:56 51°11.504 2°45.875 -999 251 -999 102280 68
2006-01-27 05:43:01 51°11.497 2°45.846 -999 266 -999 102280 68
2006-01-27 05:43:06 51°11.489 2°45.815 -999 262 -999 102290 67
2006-01-27 05:43:11 51°11.482 2°45.784 -999 217 -999 102290 67
2006-01-27 05:43:16 51°11.474 2°45.755 -999 204 -999 102290 67
2006-01-27 05:43:21 51°11.467 2°45.724 -999 235 -999 102290 67
2006-01-27 05:43:26 51°11.459 2°45.694 -999 242 -999 102370 67
2006-01-27 05:43:31 51°11.451 2°45.664 -999 296 -999 102370 67
2006-01-27 05:43:36 51°11.444 2°45.633 -999 292 -0.1 102290 67
2006-01-27 05:43:40 51°11.439 2°45.609 -999 291 -0.1 102290 67
2006-01-27 05:43:46 51°11.43 2°45.573 -999 292 -999 102290 68
2006-01-27 05:43:51 51°11.422 2°45.542 -999 271 -999 102290 68
2006-01-27 05:43:56 51°11.415 2°45.511 -999 268 -999 102290 68
2006-01-27 05:44:01 51°11.408 2°45.481 -999 255 -999 102290 68
2006-01-27 05:44:06 51°11.401 2°45.45 -999 209 -999 102290 68
2006-01-27 05:44:11 51°11.396 2°45.417 -999 255 -999 102290 68
2006-01-27 05:44:16 51°11.388 2°45.388 -999 267 -999 102380 69
2006-01-27 05:44:21 51°11.383 2°45.356 -999 239 -999 102380 69
2006-01-27 05:44:26 51°11.377 2°45.325 -999 256 -999 102370 69
2006-01-27 05:44:31 51°11.37 2°45.293 -999 228 -999 102370 69
2006-01-27 05:44:36 51°11.366 2°45.261 -999 210 -999 102280 69
2006-01-27 05:44:41 51°11.359 2°45.231 -999 232 -999 102280 69
2006-01-27 05:44:46 51°11.354 2°45.199 -999 173 0.1 102290 69
2006-01-27 05:44:51 51°11.346 2°45.167 -999 244 0.1 102290 69
2006-01-27 05:44:56 51°11.341 2°45.135 -999 190 -999 102300 69
2006-01-27 05:45:01 51°11.335 2°45.104 -999 224 -999 102300 69
2006-01-27 05:45:06 51°11.328 2°45.072 -999 220 -999 102290 69
2006-01-27 05:45:11 51°11.323 2°45.04 -999 209 -999 102290 69
2006-01-27 05:45:16 51°11.316 2°45.009 -999 214 -999 102290 69
2006-01-27 05:45:21 51°11.311 2°44.977 -999 213 -999 102290 69
2006-01-27 05:45:26 51°11.304 2°44.946 -999 216 -999 102290 68
2006-01-27 05:45:31 51°11.297 2°44.914 -999 222 -999 102290 68
2006-01-27 05:45:36 51°11.291 2°44.882 -999 217 -999 102300 68
2006-01-27 05:45:41 51°11.284 2°44.851 -999 209 -999 102300 68
2006-01-27 05:45:46 51°11.279 2°44.819 -999 203 -999 102310 68
2006-01-27 05:45:51 51°11.272 2°44.787 -999 225 -999 102310 68
2006-01-27 05:45:56 51°11.266 2°44.756 -999 186 -999 102310 68
2006-01-27 05:46:01 51°11.26 2°44.724 -999 242 -999 102310 68
2006-01-27 05:46:06 51°11.254 2°44.692 -999 240 -999 102320 68
2006-01-27 05:46:11 51°11.247 2°44.661 -999 206 -999 102320 68
2006-01-27 05:46:16 51°11.242 2°44.629 -999 188 -999 102320 68
2006-01-27 05:46:21 51°11.235 2°44.597 -999 239 -999 102320 68
2006-01-27 05:46:26 51°11.229 2°44.566 -999 223 -999 102320 68
2006-01-27 05:46:31 51°11.224 2°44.534 -999 198 -999 102320 68
2006-01-27 05:46:36 51°11.218 2°44.503 -999 201 -999 102320 68
2006-01-27 05:46:41 51°11.213 2°44.47 -999 181 -999 102320 68
2006-01-27 05:46:46 51°11.208 2°44.439 -999 162 -999 102350 68
2006-01-27 05:46:51 51°11.203 2°44.406 -999 171 -999 102350 68
2006-01-27 05:46:56 51°11.196 2°44.375 -999 180 -999 102380 68
2006-01-27 05:47:01 51°11.192 2°44.343 -999 199 -999 102380 68
2006-01-27 05:47:06 51°11.185 2°44.311 -999 212 0.1 102380 68
2006-01-27 05:47:11 51°11.18 2°44.278 -999 175 0.1 102380 68
2006-01-27 05:47:16 51°11.175 2°44.247 -999 198 -999 102310 68
2006-01-27 05:47:21 51°11.17 2°44.215 -999 178 -999 102310 68
2006-01-27 05:47:26 51°11.164 2°44.182 -999 205 -999 102310 68
2006-01-27 05:47:31 51°11.16 2°44.15 -999 196 -999 102310 68
2006-01-27 05:47:36 51°11.154 2°44.118 -999 182 -999 102320 68
2006-01-27 05:47:41 51°11.148 2°44.086 -999 171 -999 102320 68
2006-01-27 05:47:46 51°11.144 2°44.053 -999 159 -999 102310 68
2006-01-27 05:47:51 51°11.137 2°44.021 -999 237 -999 102310 68
2006-01-27 05:47:56 51°11.133 2°43.988 -999 230 -999 102310 67
2006-01-27 05:48:01 51°11.127 2°43.957 -999 245 -999 102310 67
2006-01-27 05:48:06 51°11.123 2°43.923 -999 234 0.1 102310 67
2006-01-27 05:48:11 51°11.116 2°43.892 -999 264 0.1 102310 67
2006-01-27 05:48:16 51°11.112 2°43.858 -999 250 0.1 102310 67
2006-01-27 05:48:20 51°11.107 2°43.833 -999 265 0.1 102310 67
2006-01-27 05:48:26 51°11.101 2°43.794 -999 253 -999 102310 67
2006-01-27 05:48:31 51°11.096 2°43.762 -999 240 -999 102310 67
2006-01-27 05:48:36 51°11.09 2°43.732 -999 243 0.1 102310 67
2006-01-27 05:48:41 51°11.085 2°43.698 -999 263 0.1 102310 67
2006-01-27 05:48:46 51°11.078 2°43.667 -999 281 0.1 102310 67
2006-01-27 05:48:51 51°11.073 2°43.635 -999 260 0.1 102310 67
2006-01-27 05:48:56 51°11.068 2°43.602 -999 261 0.1 102310 68
2006-01-27 05:49:01 51°11.063 2°43.571 -999 264 0.1 102310 68
2006-01-27 05:49:06 51°11.057 2°43.539 -999 267 0.1 102310 68
2006-01-27 05:49:11 51°11.053 2°43.507 -999 268 0.1 102310 68
2006-01-27 05:49:16 51°11.047 2°43.476 -999 265 0.1 102310 68
2006-01-27 05:49:20 51°11.044 2°43.45 -999 228 0.1 102310 68
2006-01-27 05:49:26 51°11.038 2°43.41 -999 252 0.1 102310 68
2006-01-27 05:49:31 51°11.036 2°43.378 -999 230 0.1 102310 68
2006-01-27 05:49:36 51°11.03 2°43.347 -999 241 0.1 102310 68
2006-01-27 05:49:41 51°11.026 2°43.314 -999 220 0.1 102310 68
2006-01-27 05:49:46 51°11.022 2°43.283 -999 237 0.1 102310 68
2006-01-27 05:49:51 51°11.019 2°43.25 -999 225 0.1 102310 68
2006-01-27 05:49:56 51°11.014 2°43.218 -999 257 0.1 102310 68
2006-01-27 05:50:00 51°11.012 2°43.192 -999 260 0.1 102310 68
2006-01-27 05:50:06 51°11.006 2°43.154 -999 267 0.1 102310 68
2006-01-27 05:50:11 51°11.003 2°43.122 -999 293 0.1 102310 68
2006-01-27 05:50:16 51°10.997 2°43.09 -999 283 0.1 102310 68
2006-01-27 05:50:21 51°10.995 2°43.058 -999 272 0.1 102310 68
2006-01-27 05:50:26 51°10.989 2°43.027 -999 274 0.1 102310 68
2006-01-27 05:50:31 51°10.986 2°42.994 -999 262 0.1 102310 68
2006-01-27 05:50:36 51°10.983 2°42.961 -999 266 0.1 102320 68
2006-01-27 05:50:41 51°10.979 2°42.93 -999 258 0.1 102320 68
2006-01-27 05:50:46 51°10.976 2°42.897 -999 249 0.1 102310 69
2006-01-27 05:50:51 51°10.974 2°42.865 -999 240 0.1 102310 69
2006-01-27 05:50:56 51°10.971 2°42.832 -999 239 0.1 102310 69
2006-01-27 05:51:01 51°10.97 2°42.799 -999 240 0.1 102310 69
2006-01-27 05:51:06 51°10.966 2°42.768 -999 250 0.1 102310 69
2006-01-27 05:51:11 51°10.965 2°42.735 -999 244 0.1 102310 69
2006-01-27 05:51:16 51°10.964 2°42.702 -999 226 0.1 102300 69
2006-01-27 05:51:21 51°10.962 2°42.67 -999 225 0.1 102300 69
2006-01-27 05:51:26 51°10.961 2°42.637 -999 226 0.1 102310 68
2006-01-27 05:51:31 51°10.959 2°42.607 -999 187 0.1 102310 68
2006-01-27 05:51:36 51°10.959 2°42.576 -999 162 0.1 102310 68
2006-01-27 05:51:41 51°10.958 2°42.548 -999 136 0.1 102310 68
2006-01-27 05:51:46 51°10.958 2°42.521 -999 114 0.1 102310 68
2006-01-27 05:51:51 51°10.957 2°42.496 -999 149 0.1 102310 68
2006-01-27 05:51:55 51°10.957 2°42.477 -999 143 0.1 102320 68
2006-01-27 05:52:01 51°10.956 2°42.45 -999 153 0.1 102320 68
2006-01-27 05:52:06 51°10.956 2°42.428 -999 154 0.1 102340 68
2006-01-27 05:52:10 51°10.957 2°42.41 -999 146 0.1 102340 68
2006-01-27 05:52:15 51°10.956 2°42.389 -999 174 0.1 102340 68
2006-01-27 05:52:20 51°10.956 2°42.369 -999 153 0.1 102340 68
2006-01-27 05:52:26 51°10.956 2°42.348 -999 153 0.1 102340 68
2006-01-27 05:52:31 51°10.957 2°42.33 -999 145 0.1 102340 68
2006-01-27 05:52:36 51°10.956 2°42.312 -999 161 0.1 102340 68
2006-01-27 05:52:41 51°10.957 2°42.294 -999 174 0.1 102340 68
2006-01-27 05:52:45 51°10.956 2°42.279 -999 154 0.1 102340 68
2006-01-27 05:52:51 51°10.956 2°42.258 -999 158 0.1 102340 68
2006-01-27 05:52:56 51°10.956 2°42.241 -999 161 0.1 102340 68
2006-01-27 05:53:01 51°10.957 2°42.223 -999 153 0.1 102340 68
2006-01-27 05:53:05 51°10.957 2°42.21 -999 153 0.1 102340 68
2006-01-27 05:53:11 51°10.958 2°42.19 -999 145 0.1 102340 68
2006-01-27 05:53:16 51°10.96 2°42.175 -999 139 0.1 102340 68
2006-01-27 05:53:21 51°10.962 2°42.16 -999 130 0.1 102340 68
2006-01-27 05:53:26 51°10.965 2°42.146 -999 126 0.1 102340 67
2006-01-27 05:53:31 51°10.968 2°42.133 -999 117 0.1 102340 67
2006-01-27 05:53:36 51°10.972 2°42.121 -999 108 0.1 102340 68
2006-01-27 05:53:41 51°10.976 2°42.11 -999 108 0.1 102340 68
2006-01-27 05:53:45 51°10.979 2°42.102 -999 106 0.1 102340 68
2006-01-27 05:53:51 51°10.985 2°42.09 -999 97 0.1 102340 68
2006-01-27 05:53:56 51°10.99 2°42.081 -999 92 0.1 102330 69
2006-01-27 05:54:01 51°10.994 2°42.074 -999 85 0.1 102330 69
2006-01-27 05:54:06 51°10.998 2°42.068 -999 85 0.1 102320 70
2006-01-27 05:54:11 51°11.003 2°42.063 -999 80 0.1 102320 70
2006-01-27 05:54:16 51°11.008 2°42.058 -999 82 0.1 102330 69
2006-01-27 05:54:21 51°11.013 2°42.054 -999 77 0.1 102330 69
2006-01-27 05:54:25 51°11.016 2°42.051 -999 77 0.1 102330 69
2006-01-27 05:54:31 51°11.022 2°42.048 -999 71 0.1 102330 69
2006-01-27 05:54:36 51°11.026 2°42.046 -999 64 0.1 102330 68
2006-01-27 05:54:41 51°11.031 2°42.045 -999 60 0.1 102330 68
2006-01-27 05:54:46 51°11.035 2°42.045 -999 52 0.1 102320 68
2006-01-27 05:54:51 51°11.038 2°42.044 -999 58 0.1 102320 68
2006-01-27 05:54:56 51°11.041 2°42.044 -999 46 0.1 102320 68
2006-01-27 05:55:01 51°11.045 2°42.046 -999 47 0.1 102320 68
2006-01-27 05:55:05 51°11.048 2°42.047 -999 47 0.1 102320 69
2006-01-27 05:55:11 51°11.051 2°42.048 -999 41 0.1 102320 69
2006-01-27 05:55:16 51°11.054 2°42.051 -999 45 0.1 102320 69
2006-01-27 05:55:21 51°11.057 2°42.053 -999 41 0.1 102320 69
2006-01-27 05:55:26 51°11.061 2°42.055 -999 42 0.1 102320 68
2006-01-27 05:55:31 51°11.064 2°42.058 -999 44 0.1 102320 68
2006-01-27 05:55:36 51°11.067 2°42.061 -999 44 0.1 102320 69
2006-01-27 05:55:41 51°11.07 2°42.063 -999 43 0.1 102320 69
2006-01-27 05:55:45 51°11.072 2°42.064 -999 47 0.1 102330 70
2006-01-27 05:55:51 51°11.075 2°42.066 -999 45 0.1 102330 70
2006-01-27 05:55:56 51°11.078 2°42.068 -999 55 0.1 102370 68
2006-01-27 05:56:01 51°11.081 2°42.069 -999 43 0.1 102370 68
2006-01-27 05:56:06 51°11.082 2°42.069 -999 49 0.1 102320 68
2006-01-27 05:56:11 51°11.084 2°42.069 -999 53 0.1 102320 68
2006-01-27 05:56:16 51°11.087 2°42.069 -999 53 -999 102340 67
2006-01-27 05:56:21 51°11.089 2°42.07 -999 54 -999 102340 67
2006-01-27 05:56:25 51°11.09 2°42.07 -999 60 0.1 102330 68
2006-01-27 05:56:31 51°11.093 2°42.071 -999 51 0.1 102330 68
2006-01-27 05:56:36 51°11.095 2°42.071 -999 49 -999 102340 68
2006-01-27 05:56:41 51°11.096 2°42.071 -999 50 -999 102340 68
2006-01-27 05:56:46 51°11.097 2°42.07 -999 48 -999 102330 68
2006-01-27 05:56:51 51°11.099 2°42.069 -999 54 -999 102330 68
2006-01-27 05:56:56 51°11.1 2°42.068 -999 53 0.1 102320 69
2006-01-27 05:57:01 51°11.101 2°42.068 -999 50 0.1 102320 69
2006-01-27 05:57:06 51°11.102 2°42.066 -999 43 0.1 102330 69
2006-01-27 05:57:11 51°11.102 2°42.064 -999 48 0.1 102330 69
2006-01-27 05:57:16 51°11.104 2°42.063 -999 48 -999 102320 68
2006-01-27 05:57:21 51°11.104 2°42.062 -999 51 -999 102320 68
2006-01-27 05:57:26 51°11.105 2°42.06 -999 55 0.1 102340 69
2006-01-27 05:57:31 51°11.106 2°42.057 -999 58 0.1 102340 69
2006-01-27 05:57:36 51°11.106 2°42.055 -999 64 -999 102320 68
2006-01-27 05:57:41 51°11.107 2°42.053 -999 66 -999 102320 68
2006-01-27 05:57:46 51°11.107 2°42.051 -999 60 -999 102340 68
2006-01-27 05:57:51 51°11.108 2°42.049 -999 66 -999 102340 68
2006-01-27 05:57:56 51°11.108 2°42.046 -999 55 -999 102390 68
2006-01-27 05:58:01 51°11.109 2°42.045 -999 68 -999 102390 68
2006-01-27 05:58:06 51°11.109 2°42.043 -999 63 -999 102380 69
2006-01-27 05:58:11 51°11.109 2°42.04 -999 70 -999 102380 69
2006-01-27 05:58:16 51°11.11 2°42.038 -999 67 0.1 102380 70
2006-01-27 05:58:21 51°11.11 2°42.035 -999 69 0.1 102380 70
2006-01-27 05:58:26 51°11.11 2°42.033 -999 65 0.1 102380 71
2006-01-27 05:58:32 51°11.111 2°42.03 -999 70 0.1 102380 71
2006-01-27 05:58:36 51°11.111 2°42.028 -999 80 0.1 102370 69
2006-01-27 05:58:41 51°11.111 2°42.026 -999 68 0.1 102370 69
2006-01-27 05:58:46 51°11.111 2°42.022 -999 65 0.1 102370 69
2006-01-27 05:58:51 51°11.111 2°42.02 -999 72 0.1 102370 69
2006-01-27 05:58:56 51°11.111 2°42.017 -999 74 0.1 102390 70
2006-01-27 05:59:01 51°11.111 2°42.014 -999 69 0.1 102390 70
2006-01-27 05:59:06 51°11.111 2°42.011 -999 76 0.1 102380 71
2006-01-27 05:59:11 51°11.111 2°42.008 -999 79 0.1 102380 71
2006-01-27 05:59:16 51°11.11 2°42.005 -999 77 0.2 102310 71
2006-01-27 05:59:21 51°11.11 2°42.002 -999 72 0.2 102310 71
2006-01-27 05:59:26 51°11.109 2°41.997 -999 73 0.1 102320 70
2006-01-27 05:59:31 51°11.108 2°41.994 -999 78 0.1 102320 70
2006-01-27 05:59:36 51°11.107 2°41.991 -999 78 0.1 102330 70
2006-01-27 05:59:41 51°11.106 2°41.987 -999 81 0.1 102330 70
2006-01-27 05:59:45 51°11.106 2°41.985 -999 79 0.1 102320 70
2006-01-27 05:59:51 51°11.104 2°41.98 -999 81 0.1 102320 70
2006-01-27 05:59:56 51°11.103 2°41.977 -999 89 0.1 102320 69
2006-01-27 06:00:01 51°11.102 2°41.973 -999 86 0.1 102320 69
2006-01-27 06:00:06 51°11.101 2°41.97 -999 93 0.1 102330 69
2006-01-27 06:00:11 51°11.1 2°41.966 -999 92 0.1 102330 69
2006-01-27 06:00:16 51°11.098 2°41.963 -999 91 0.1 102330 70
2006-01-27 06:00:21 51°11.097 2°41.961 -999 95 0.1 102330 70
2006-01-27 06:00:26 51°11.096 2°41.959 -999 86 0.1 102320 69
2006-01-27 06:00:31 51°11.095 2°41.957 -999 78 0.1 102320 69
2006-01-27 06:00:36 51°11.095 2°41.957 -999 70 0.1 102330 69
2006-01-27 06:00:41 51°11.094 2°41.955 -999 64 0.1 102330 69
2006-01-27 06:00:46 51°11.094 2°41.954 -999 66 0.1 102370 70
2006-01-27 06:00:51 51°11.094 2°41.953 -999 54 0.1 102370 70
2006-01-27 06:00:56 51°11.093 2°41.953 -999 51 0.1 102370 70
2006-01-27 06:01:01 51°11.093 2°41.953 -999 42 0.1 102370 70
2006-01-27 06:01:06 51°11.093 2°41.953 -999 42 0.2 102330 71
2006-01-27 06:01:11 51°11.094 2°41.953 -999 36 0.2 102330 71
2006-01-27 06:01:16 51°11.094 2°41.953 -999 25 0.2 102330 71
2006-01-27 06:01:21 51°11.094 2°41.953 -999 20 0.2 102330 71
2006-01-27 06:01:25 51°11.094 2°41.953 -999 23 0.1 102330 69
2006-01-27 06:01:31 51°11.094 2°41.954 -999 26 0.1 102330 69
2006-01-27 06:01:36 51°11.095 2°41.954 -999 27 0.1 102330 69
2006-01-27 06:01:41 51°11.094 2°41.954 -999 27 0.1 102330 69
2006-01-27 06:01:45 51°11.095 2°41.954 -999 24 0.1 102340 69
2006-01-27 06:01:51 51°11.095 2°41.955 -999 21 0.1 102340 69
2006-01-27 06:01:56 51°11.094 2°41.955 -999 23 0.1 102370 70
2006-01-27 06:02:01 51°11.095 2°41.954 -999 24 0.1 102370 70
2006-01-27 06:02:05 51°11.094 2°41.955 -999 22 0.1 102340 69
2006-01-27 06:02:11 51°11.094 2°41.954 -999 16 0.1 102340 69
2006-01-27 06:02:16 51°11.094 2°41.954 -999 24 0.1 102350 69
2006-01-27 06:02:21 51°11.094 2°41.954 -999 24 0.1 102350 69
2006-01-27 06:02:25 51°11.094 2°41.954 -999 26 0.1 102320 68
2006-01-27 06:02:31 51°11.094 2°41.954 -999 21 0.1 102320 68
2006-01-27 06:02:36 51°11.094 2°41.954 -999 28 0.1 102350 68
2006-01-27 06:02:41 51°11.094 2°41.954 -999 30 0.1 102350 68
2006-01-27 06:02:46 51°11.094 2°41.954 -999 36 0.1 102340 68
2006-01-27 06:02:51 51°11.094 2°41.953 -999 17 0.1 102340 68
2006-01-27 06:02:56 51°11.094 2°41.952 -999 15 0.1 102340 69
2006-01-27 06:03:01 51°11.094 2°41.953 -999 20 0.1 102340 69
2006-01-27 06:03:06 51°11.094 2°41.954 -999 25 0.1 102340 69
2006-01-27 06:03:12 51°11.094 2°41.954 -999 23 0.1 102340 69
2006-01-27 06:03:16 51°11.095 2°41.953 -999 24 0.1 102330 70
2006-01-27 06:03:21 51°11.095 2°41.953 -999 25 0.1 102330 70
2006-01-27 06:03:25 51°11.095 2°41.953 -999 25 0.2 102320 71
2006-01-27 06:03:31 51°11.095 2°41.952 -999 25 0.2 102320 71
2006-01-27 06:03:36 51°11.095 2°41.952 -999 26 0.2 102310 71
2006-01-27 06:03:41 51°11.095 2°41.952 -999 31 0.2 102310 71
2006-01-27 06:03:45 51°11.096 2°41.952 -999 23 0.2 102360 71
2006-01-27 06:03:51 51°11.096 2°41.953 -999 30 0.2 102360 71
2006-01-27 06:03:56 51°11.096 2°41.952 -999 29 0.2 102360 71
2006-01-27 06:04:01 51°11.096 2°41.952 -999 25 0.2 102360 71
2006-01-27 06:04:06 51°11.097 2°41.952 -999 26 0.2 102370 71
2006-01-27 06:04:11 51°11.097 2°41.952 -999 27 0.2 102370 71
2006-01-27 06:04:16 51°11.097 2°41.952 -999 28 0.2 102380 71
2006-01-27 06:04:21 51°11.097 2°41.952 -999 22 0.2 102380 71
2006-01-27 06:04:26 51°11.097 2°41.952 -999 21 0.2 102370 70
2006-01-27 06:04:31 51°11.097 2°41.952 -999 27 0.2 102370 70
2006-01-27 06:04:36 51°11.098 2°41.952 -999 25 0.2 102370 69
2006-01-27 06:04:41 51°11.098 2°41.952 -999 24 0.2 102370 69
2006-01-27 06:04:45 51°11.098 2°41.952 -999 25 0.2 102370 69
2006-01-27 06:04:51 51°11.098 2°41.952 -999 30 0.2 102370 69
2006-01-27 06:04:56 51°11.098 2°41.951 -999 23 0.2 102370 69
2006-01-27 06:05:01 51°11.098 2°41.952 -999 20 0.2 102370 69
2006-01-27 06:05:06 51°11.097 2°41.952 -999 23 0.2 102380 69
2006-01-27 06:05:11 51°11.098 2°41.952 -999 24 0.2 102380 69
2006-01-27 06:05:16 51°11.097 2°41.951 -999 20 0.2 102370 69
2006-01-27 06:05:21 51°11.097 2°41.951 -999 21 0.2 102370 69
2006-01-27 06:05:26 51°11.097 2°41.952 -999 17 0.1 102370 68
2006-01-27 06:05:31 51°11.097 2°41.951 -999 21 0.1 102370 68
2006-01-27 06:05:36 51°11.097 2°41.951 -999 17 0.1 102370 68
2006-01-27 06:05:41 51°11.097 2°41.952 -999 13 0.1 102370 68
2006-01-27 06:05:46 51°11.096 2°41.952 -999 21 0.1 102360 68
2006-01-27 06:05:51 51°11.096 2°41.953 -999 15 0.1 102360 68
2006-01-27 06:05:56 51°11.096 2°41.953 -999 14 0.1 102370 68
2006-01-27 06:06:01 51°11.096 2°41.953 -999 32 0.1 102370 68
2006-01-27 06:06:06 51°11.096 2°41.954 -999 26 0.1 102370 68
2006-01-27 06:06:11 51°11.096 2°41.954 -999 27 0.1 102370 68
2006-01-27 06:06:16 51°11.096 2°41.954 -999 24 0.1 102380 69
2006-01-27 06:06:21 51°11.096 2°41.954 -999 22 0.1 102380 69
2006-01-27 06:06:26 51°11.096 2°41.954 -999 28 0.1 102370 70
2006-01-27 06:06:31 51°11.096 2°41.955 -999 26 0.1 102370 70
2006-01-27 06:06:36 51°11.096 2°41.954 -999 27 0.1 102380 70
2006-01-27 06:06:41 51°11.095 2°41.953 -999 29 0.1 102380 70
2006-01-27 06:06:46 51°11.095 2°41.953 -999 26 0.1 102370 70
2006-01-27 06:06:51 51°11.095 2°41.953 -999 26 0.1 102370 70
2006-01-27 06:06:56 51°11.094 2°41.953 -999 35 0.1 102370 69
2006-01-27 06:07:01 51°11.095 2°41.952 -999 29 0.1 102370 69
2006-01-27 06:07:05 51°11.095 2°41.952 -999 30 0.2 102370 70
2006-01-27 06:07:11 51°11.095 2°41.952 -999 34 0.2 102370 70
2006-01-27 06:07:16 51°11.095 2°41.953 -999 34 0.1 102370 69
2006-01-27 06:07:21 51°11.096 2°41.953 -999 34 0.1 102370 69
2006-01-27 06:07:26 51°11.096 2°41.953 -999 26 0.1 102360 69
2006-01-27 06:07:31 51°11.096 2°41.953 -999 28 0.1 102360 69
2006-01-27 06:07:36 51°11.096 2°41.953 -999 22 0.1 102380 69
2006-01-27 06:07:41 51°11.096 2°41.953 -999 19 0.1 102380 69
2006-01-27 06:07:46 51°11.096 2°41.953 -999 19 0.1 102370 68
2006-01-27 06:07:51 51°11.097 2°41.953 -999 26 0.1 102370 68
2006-01-27 06:07:56 51°11.096 2°41.953 -999 24 0.1 102380 69
2006-01-27 06:08:01 51°11.097 2°41.953 -999 24 0.1 102380 69
2006-01-27 06:08:06 51°11.097 2°41.953 -999 27 0.1 102370 70
2006-01-27 06:08:11 51°11.097 2°41.952 -999 24 0.1 102370 70
2006-01-27 06:08:16 51°11.097 2°41.952 -999 24 0.1 102360 69
2006-01-27 06:08:21 51°11.097 2°41.951 -999 30 0.1 102360 69
2006-01-27 06:08:26 51°11.097 2°41.952 -999 31 0.1 102370 69
2006-01-27 06:08:31 51°11.097 2°41.952 -999 31 0.1 102370 69
2006-01-27 06:08:36 51°11.097 2°41.952 -999 28 0.1 102380 69
2006-01-27 06:08:41 51°11.097 2°41.951 -999 31 0.1 102380 69
2006-01-27 06:08:46 51°11.097 2°41.951 -999 25 0.1 102370 69
2006-01-27 06:08:51 51°11.097 2°41.951 -999 22 0.1 102370 69
2006-01-27 06:08:56 51°11.097 2°41.952 -999 27 0.1 102370 69
2006-01-27 06:09:01 51°11.097 2°41.952 -999 26 0.1 102370 69
2006-01-27 06:09:06 51°11.097 2°41.952 -999 25 0.1 102360 69
2006-01-27 06:09:11 51°11.098 2°41.952 -999 33 0.1 102360 69
2006-01-27 06:09:16 51°11.098 2°41.952 -999 28 0.1 102350 69
2006-01-27 06:09:21 51°11.098 2°41.952 -999 13 0.1 102350 69
2006-01-27 06:09:25 51°11.098 2°41.952 -999 21 0.1 102390 70
2006-01-27 06:09:31 51°11.098 2°41.952 -999 21 0.1 102390 70
2006-01-27 06:09:36 51°11.098 2°41.952 -999 22 0.1 102370 69
2006-01-27 06:09:41 51°11.099 2°41.952 -999 32 0.1 102370 69
2006-01-27 06:09:46 51°11.099 2°41.952 -999 29 0.1 102380 69
2006-01-27 06:09:51 51°11.099 2°41.952 -999 33 0.1 102380 69
2006-01-27 06:09:56 51°11.099 2°41.951 -999 30 0.1 102360 70
2006-01-27 06:10:01 51°11.099 2°41.951 -999 27 0.1 102360 70
2006-01-27 06:10:06 51°11.099 2°41.952 -999 30 0.1 102360 71
2006-01-27 06:10:11 51°11.099 2°41.95 -999 23 0.1 102360 71
2006-01-27 06:10:16 51°11.099 2°41.95 -999 29 0.2 102390 72
2006-01-27 06:10:21 51°11.099 2°41.951 -999 34 0.2 102390 72
2006-01-27 06:10:26 51°11.1 2°41.951 -999 35 0.2 102370 71
2006-01-27 06:10:31 51°11.1 2°41.95 -999 38 0.2 102370 71
2006-01-27 06:10:36 51°11.1 2°41.951 -999 36 0.2 102390 72
2006-01-27 06:10:41 51°11.1 2°41.951 -999 33 0.2 102390 72
2006-01-27 06:10:46 51°11.1 2°41.951 -999 28 0.2 102370 72
2006-01-27 06:10:51 51°11.1 2°41.951 -999 36 0.2 102370 72
2006-01-27 06:10:56 51°11.1 2°41.951 -999 33 0.2 102370 71
2006-01-27 06:11:01 51°11.1 2°41.952 -999 29 0.2 102370 71
2006-01-27 06:11:06 51°11.1 2°41.952 -999 35 0.2 102380 71
2006-01-27 06:11:11 51°11.1 2°41.951 -999 47 0.2 102380 71
2006-01-27 06:11:16 51°11.101 2°41.95 -999 30 0.2 102370 71
2006-01-27 06:11:21 51°11.1 2°41.951 -999 38 0.2 102370 71
2006-01-27 06:11:26 51°11.1 2°41.951 -999 43 0.2 102380 71
2006-01-27 06:11:31 51°11.101 2°41.95 -999 40 0.2 102380 71
2006-01-27 06:11:36 51°11.101 2°41.95 -999 42 0.2 102370 71
2006-01-27 06:11:41 51°11.101 2°41.95 -999 41 0.2 102370 71
2006-01-27 06:11:46 51°11.101 2°41.949 -999 40 0.3 102380 72
2006-01-27 06:11:51 51°11.101 2°41.949 -999 47 0.3 102380 72
2006-01-27 06:11:56 51°11.101 2°41.949 -999 42 0.3 102370 72
2006-01-27 06:12:01 51°11.101 2°41.95 -999 38 0.3 102370 72
2006-01-27 06:12:06 51°11.102 2°41.95 -999 42 0.2 102360 70
2006-01-27 06:12:11 51°11.102 2°41.95 -999 40 0.2 102360 70
2006-01-27 06:12:16 51°11.102 2°41.949 -999 39 0.2 102360 69
2006-01-27 06:12:21 51°11.102 2°41.95 -999 27 0.2 102360 69
2006-01-27 06:12:26 51°11.102 2°41.95 -999 32 0.1 102370 69
2006-01-27 06:12:31 51°11.103 2°41.949 -999 37 0.1 102370 69
2006-01-27 06:12:36 51°11.103 2°41.949 -999 29 0.2 102380 70
2006-01-27 06:12:41 51°11.103 2°41.949 -999 32 0.2 102380 70
2006-01-27 06:12:45 51°11.103 2°41.949 -999 27 0.2 102370 70
2006-01-27 06:12:51 51°11.103 2°41.95 -999 29 0.2 102370 70
2006-01-27 06:12:56 51°11.104 2°41.95 -999 30 0.2 102370 71
2006-01-27 06:13:01 51°11.103 2°41.949 -999 26 0.2 102370 71
2006-01-27 06:13:06 51°11.103 2°41.95 -999 28 0.2 102380 71
2006-01-27 06:13:11 51°11.103 2°41.95 -999 25 0.2 102380 71
2006-01-27 06:13:16 51°11.103 2°41.95 -999 26 0.2 102380 70
2006-01-27 06:13:21 51°11.103 2°41.95 -999 21 0.2 102380 70
2006-01-27 06:13:26 51°11.103 2°41.95 -999 21 0.2 102380 70
2006-01-27 06:13:31 51°11.102 2°41.951 -999 27 0.2 102380 70
2006-01-27 06:13:36 51°11.102 2°41.95 -999 16 0.2 102390 70
2006-01-27 06:13:41 51°11.102 2°41.949 -999 23 0.2 102390 70
2006-01-27 06:13:46 51°11.102 2°41.949 -999 28 0.1 102380 69
2006-01-27 06:13:51 51°11.101 2°41.949 -999 26 0.1 102380 69
2006-01-27 06:13:56 51°11.101 2°41.95 -999 21 0.1 102390 69
2006-01-27 06:14:01 51°11.1 2°41.951 -999 17 0.1 102390 69
2006-01-27 06:14:06 51°11.1 2°41.951 -999 27 0.1 102380 69
2006-01-27 06:14:11 51°11.101 2°41.951 -999 25 0.1 102380 69
2006-01-27 06:14:16 51°11.101 2°41.951 -999 22 0.1 102380 69
2006-01-27 06:14:21 51°11.101 2°41.951 -999 24 0.1 102380 69
2006-01-27 06:14:26 51°11.1 2°41.951 -999 26 0.1 102380 69
2006-01-27 06:14:31 51°11.1 2°41.952 -999 26 0.1 102380 69
2006-01-27 06:14:36 51°11.1 2°41.952 -999 24 0.1 102370 69
2006-01-27 06:14:41 51°11.101 2°41.951 -999 30 0.1 102370 69
2006-01-27 06:14:46 51°11.1 2°41.951 -999 28 0.1 102390 69
2006-01-27 06:14:51 51°11.1 2°41.951 -999 19 0.1 102390 69
2006-01-27 06:14:56 51°11.1 2°41.951 -999 23 0.1 102390 69
2006-01-27 06:15:01 51°11.1 2°41.951 -999 24 0.1 102390 69
2006-01-27 06:15:06 51°11.099 2°41.951 -999 25 0.1 102370 68
2006-01-27 06:15:11 51°11.099 2°41.951 -999 23 0.1 102370 68
2006-01-27 06:15:16 51°11.099 2°41.951 -999 19 0.1 102390 69
2006-01-27 06:15:21 51°11.099 2°41.951 -999 21 0.1 102390 69
2006-01-27 06:15:26 51°11.098 2°41.952 -999 29 0.1 102370 70
2006-01-27 06:15:31 51°11.098 2°41.952 -999 25 0.1 102370 70
2006-01-27 06:15:36 51°11.099 2°41.952 -999 30 0.1 102400 71
2006-01-27 06:15:41 51°11.099 2°41.952 -999 31 0.1 102400 71
2006-01-27 06:15:45 51°11.099 2°41.952 -999 30 0.2 102380 70
2006-01-27 06:15:51 51°11.099 2°41.953 -999 30 0.2 102380 70
2006-01-27 06:15:56 51°11.099 2°41.952 -999 27 0.1 102380 70
2006-01-27 06:16:01 51°11.099 2°41.952 -999 40 0.1 102380 70
2006-01-27 06:16:06 51°11.099 2°41.952 -999 39 0.1 102370 70
2006-01-27 06:16:11 51°11.098 2°41.953 -999 35 0.1 102370 70
2006-01-27 06:16:16 51°11.099 2°41.952 -999 29 0.1 102380 70
2006-01-27 06:16:21 51°11.099 2°41.952 -999 38 0.1 102380 70
2006-01-27 06:16:26 51°11.099 2°41.952 -999 42 0.1 102360 70
2006-01-27 06:16:31 51°11.099 2°41.951 -999 44 0.1 102360 70
2006-01-27 06:16:36 51°11.1 2°41.951 -999 40 0.1 102380 70
2006-01-27 06:16:41 51°11.1 2°41.95 -999 48 0.1 102380 70
2006-01-27 06:16:46 51°11.1 2°41.95 -999 39 0.1 102370 70
2006-01-27 06:16:51 51°11.1 2°41.951 -999 38 0.1 102370 70
2006-01-27 06:16:56 51°11.101 2°41.951 -999 44 0.1 102370 69
2006-01-27 06:17:01 51°11.101 2°41.951 -999 42 0.1 102370 69
2006-01-27 06:17:06 51°11.101 2°41.951 -999 37 0.1 102370 69
2006-01-27 06:17:11 51°11.101 2°41.951 -999 37 0.1 102370 69
2006-01-27 06:17:16 51°11.102 2°41.951 -999 34 0.1 102380 69
2006-01-27 06:17:21 51°11.102 2°41.951 -999 39 0.1 102380 69
2006-01-27 06:17:26 51°11.102 2°41.95 -999 38 0.1 102360 69
2006-01-27 06:17:31 51°11.102 2°41.95 -999 39 0.1 102360 69
2006-01-27 06:17:36 51°11.102 2°41.95 -999 37 0.1 102370 69
2006-01-27 06:17:41 51°11.102 2°41.95 -999 36 0.1 102370 69
2006-01-27 06:17:46 51°11.103 2°41.949 -999 34 0.1 102370 69
2006-01-27 06:17:51 51°11.103 2°41.949 -999 39 0.1 102370 69
2006-01-27 06:17:56 51°11.103 2°41.949 -999 36 -999 102370 68
2006-01-27 06:18:01 51°11.103 2°41.95 -999 37 -999 102370 68
2006-01-27 06:18:06 51°11.103 2°41.95 -999 39 -999 102360 69
2006-01-27 06:18:11 51°11.103 2°41.951 -999 33 -999 102360 69
2006-01-27 06:18:16 51°11.103 2°41.95 -999 35 -999 102370 68
2006-01-27 06:18:21 51°11.103 2°41.95 -999 33 -999 102370 68
2006-01-27 06:18:26 51°11.103 2°41.95 -999 31 -999 102370 68
2006-01-27 06:18:31 51°11.103 2°41.95 -999 27 -999 102370 68
2006-01-27 06:18:36 51°11.103 2°41.95 -999 30 -999 102360 68
2006-01-27 06:18:41 51°11.103 2°41.95 -999 29 -999 102360 68
2006-01-27 06:18:46 51°11.103 2°41.95 -999 26 -999 102370 68
2006-01-27 06:18:52 51°11.103 2°41.95 -999 27 -999 102370 68
2006-01-27 06:18:56 51°11.103 2°41.95 -999 25 -999 102380 69
2006-01-27 06:19:01 51°11.103 2°41.95 -999 29 -999 102380 69
2006-01-27 06:19:06 51°11.103 2°41.95 -999 30 -999 102370 69
2006-01-27 06:19:11 51°11.103 2°41.95 -999 24 -999 102370 69
2006-01-27 06:19:16 51°11.103 2°41.95 -999 29 -999 102380 69
2006-01-27 06:19:21 51°11.103 2°41.951 -999 30 -999 102380 69
2006-01-27 06:19:25 51°11.103 2°41.951 -999 28 -999 102380 69
2006-01-27 06:19:31 51°11.103 2°41.95 -999 34 -999 102380 69
2006-01-27 06:19:36 51°11.103 2°41.95 -999 27 -999 102370 70
2006-01-27 06:19:41 51°11.103 2°41.95 -999 31 -999 102370 70
2006-01-27 06:19:46 51°11.103 2°41.95 -999 34 -999 102380 71
2006-01-27 06:19:51 51°11.103 2°41.95 -999 33 -999 102380 71
2006-01-27 06:19:56 51°11.103 2°41.95 -999 34 0.1 102380 71
2006-01-27 06:20:01 51°11.103 2°41.95 -999 32 0.1 102380 71
2006-01-27 06:20:06 51°11.103 2°41.95 -999 33 0.1 102370 70
2006-01-27 06:20:11 51°11.102 2°41.95 -999 27 0.1 102370 70
2006-01-27 06:20:16 51°11.103 2°41.95 -999 25 0.1 102360 70
2006-01-27 06:20:21 51°11.103 2°41.95 -999 27 0.1 102360 70
2006-01-27 06:20:26 51°11.103 2°41.951 -999 22 0.1 102370 71
2006-01-27 06:20:31 51°11.103 2°41.951 -999 24 0.1 102370 71
2006-01-27 06:20:36 51°11.103 2°41.951 -999 29 0.1 102370 71
2006-01-27 06:20:41 51°11.102 2°41.952 -999 24 0.1 102370 71
2006-01-27 06:20:46 51°11.102 2°41.952 -999 26 0.1 102360 71
2006-01-27 06:20:51 51°11.102 2°41.951 -999 22 0.1 102360 71
2006-01-27 06:20:56 51°11.102 2°41.951 -999 23 0.1 102390 72
2006-01-27 06:21:01 51°11.102 2°41.952 -999 30 0.1 102390 72
2006-01-27 06:21:06 51°11.101 2°41.951 -999 29 0.1 102390 72
2006-01-27 06:21:11 51°11.101 2°41.951 -999 26 0.1 102390 72
2006-01-27 06:21:16 51°11.101 2°41.951 -999 22 0.1 102370 71
2006-01-27 06:21:21 51°11.101 2°41.95 -999 34 0.1 102370 71
2006-01-27 06:21:25 51°11.1 2°41.95 -999 27 0.1 102390 71
2006-01-27 06:21:31 51°11.1 2°41.951 -999 26 0.1 102390 71
2006-01-27 06:21:36 51°11.1 2°41.951 -999 25 0.1 102370 70
2006-01-27 06:21:41 51°11.1 2°41.951 -999 29 0.1 102370 70
2006-01-27 06:21:46 51°11.1 2°41.952 -999 23 0.1 102380 70
2006-01-27 06:21:51 51°11.099 2°41.952 -999 22 0.1 102380 70
2006-01-27 06:21:56 51°11.099 2°41.952 -999 19 0.1 102380 69
2006-01-27 06:22:01 51°11.1 2°41.952 -999 22 0.1 102380 69
2006-01-27 06:22:06 51°11.099 2°41.952 -999 20 0.1 102390 68
2006-01-27 06:22:11 51°11.099 2°41.953 -999 18 0.1 102390 68
2006-01-27 06:22:16 51°11.099 2°41.953 -999 25 0.1 102380 68
2006-01-27 06:22:21 51°11.1 2°41.952 -999 28 0.1 102380 68
2006-01-27 06:22:26 51°11.1 2°41.952 -999 29 0.1 102370 68
2006-01-27 06:22:31 51°11.099 2°41.952 -999 31 0.1 102370 68
2006-01-27 06:22:36 51°11.099 2°41.952 -999 32 0.1 102390 68
2006-01-27 06:22:41 51°11.099 2°41.952 -999 29 0.1 102390 68
2006-01-27 06:22:46 51°11.099 2°41.952 -999 28 0.1 102370 68
2006-01-27 06:22:51 51°11.099 2°41.951 -999 40 0.1 102370 68
2006-01-27 06:22:56 51°11.099 2°41.951 -999 37 -999 102390 68
2006-01-27 06:23:01 51°11.099 2°41.951 -999 37 -999 102390 68
2006-01-27 06:23:06 51°11.099 2°41.951 -999 35 -999 102390 69
2006-01-27 06:23:11 51°11.099 2°41.951 -999 41 -999 102390 69
2006-01-27 06:23:16 51°11.099 2°41.951 -999 32 -999 102360 69
2006-01-27 06:23:21 51°11.099 2°41.951 -999 39 -999 102360 69
2006-01-27 06:23:26 51°11.1 2°41.952 -999 44 -999 102380 69
2006-01-27 06:23:31 51°11.1 2°41.951 -999 40 -999 102380 69
2006-01-27 06:23:36 51°11.1 2°41.952 -999 36 -999 102370 68
2006-01-27 06:23:41 51°11.1 2°41.952 -999 37 -999 102370 68
2006-01-27 06:23:45 51°11.101 2°41.951 -999 42 -999 102380 69
2006-01-27 06:23:51 51°11.102 2°41.951 -999 35 -999 102380 69
2006-01-27 06:23:56 51°11.101 2°41.952 -999 35 -999 102370 69
2006-01-27 06:24:01 51°11.102 2°41.951 -999 39 -999 102370 69
2006-01-27 06:24:06 51°11.102 2°41.951 -999 36 -999 102380 69
2006-01-27 06:24:11 51°11.102 2°41.95 -999 39 -999 102380 69
2006-01-27 06:24:16 51°11.102 2°41.95 -999 36 -999 102370 69
2006-01-27 06:24:21 51°11.102 2°41.95 -999 37 -999 102370 69
2006-01-27 06:24:26 51°11.102 2°41.95 -999 37 -999 102390 68
2006-01-27 06:24:31 51°11.102 2°41.95 -999 29 -999 102390 68
2006-01-27 06:24:36 51°11.102 2°41.95 -999 34 -999 102360 69
2006-01-27 06:24:41 51°11.102 2°41.95 -999 27 -999 102360 69
2006-01-27 06:24:46 51°11.103 2°41.951 -999 32 0.1 102380 70
2006-01-27 06:24:51 51°11.103 2°41.95 -999 35 0.1 102380 70
2006-01-27 06:24:56 51°11.103 2°41.949 -999 32 0.1 102380 71
2006-01-27 06:25:01 51°11.102 2°41.95 -999 33 0.1 102380 71
2006-01-27 06:25:06 51°11.103 2°41.95 -999 36 0.1 102370 70
2006-01-27 06:25:12 51°11.103 2°41.95 -999 33 0.1 102370 70
2006-01-27 06:25:16 51°11.103 2°41.95 -999 23 -999 102380 70
2006-01-27 06:25:21 51°11.102 2°41.95 -999 25 -999 102380 70
2006-01-27 06:25:25 51°11.102 2°41.95 -999 27 0.1 102370 70
2006-01-27 06:25:31 51°11.102 2°41.95 -999 36 0.1 102370 70
2006-01-27 06:25:36 51°11.102 2°41.95 -999 25 0.1 102370 70
2006-01-27 06:25:41 51°11.102 2°41.95 -999 27 0.1 102370 70
2006-01-27 06:25:46 51°11.102 2°41.95 -999 23 0.1 102390 71
2006-01-27 06:25:51 51°11.102 2°41.95 -999 27 0.1 102390 71
2006-01-27 06:25:56 51°11.102 2°41.95 -999 25 0.1 102380 70
2006-01-27 06:26:01 51°11.102 2°41.95 -999 23 0.1 102380 70
2006-01-27 06:26:06 51°11.102 2°41.95 -999 20 0.1 102380 70
2006-01-27 06:26:11 51°11.102 2°41.95 -999 23 0.1 102380 70
2006-01-27 06:26:16 51°11.102 2°41.95 -999 16 0.1 102390 70
2006-01-27 06:26:21 51°11.102 2°41.951 -999 19 0.1 102390 70